GFSNW_prec_kuchsnow_297.txt.gz
Snowfall_Accumulation
0.0 0.0 0.0 0.0 0.0 0.0 0.0 0.0 6.6 0.0 0.0 2.0 4.3 5.8 2.8 0.0 0.0 0.0 0.2 0.1 0.6 0.9 0.4 1.7 0.0 0.2 0.0 0.7 2.0 1.4 1.1 3.8 3.2 0.4 0.1 0.0 0.0 0.0 0.0 3.4 1.3 2.6 4.8 3.2
0.0 0.0 0.0 0.0 0.0 0.0 0.0 2.8 1.2 0.0 0.0 7.6 3.5 0.4 0.0 0.9 1.0 0.4 1.6 1.5 1.6 1.3 0.4 4.5 0.0 3.0 1.2 0.3 1.2 2.0 2.0 4.6 4.4 2.4 0.8 0.0 0.5 0.0 0.0 0.2 0.8 3.4 5.5 0.5
0.0 0.0 0.0 0.0 0.0 0.0 0.0 3.0 7.8 0.0 0.0 0.0 2.9 4.4 1.1 0.7 0.0 1.1 1.1 1.4 0.0 2.2 1.0 0.0 4.4 3.4 2.8 1.6 1.1 0.6 4.5 4.1 2.6 3.3 4.8 4.9 4.7 0.6 0.2 1.2 6.7 0.6 0.5 0.3
0.0 0.0 0.0 0.0 0.0 0.0 0.0 3.4 3.1 0.1 5.4 0.7 2.4 3.5 3.0 2.1 2.7 0.2 0.9 1.8 1.6 3.6 4.6 1.2 1.0 0.4 0.2 0.0 1.0 1.7 4.3 3.1 0.3 0.4 0.3 2.9 2.6 2.3 0.9 3.1 0.4 2.1 0.0 0.0
0.0 0.0 0.0 0.0 0.0 0.0 0.0 4.2 4.2 1.8 2.4 0.4 1.0 1.5 2.2 0.8 1.1 2.3 1.8 2.0 1.1 0.9 3.1 2.5 3.1 2.1 0.4 1.9 1.4 4.8 3.1 4.6 4.6 4.2 0.7 1.6 3.3 2.0 1.8 0.2 0.2 0.0 0.0 0.0
0.0 0.0 0.0 0.0 0.0 0.0 0.0 1.0 0.8 5.7 1.6 0.4 1.2 1.3 1.4 2.0 1.0 0.1 0.0 0.5 0.7 0.5 0.2 0.0 0.0 0.0 1.2 2.2 2.2 1.3 6.0 8.6 11.3 8.4 1.1 2.1 4.1 3.7 3.6 4.1 5.1 3.3 2.9 1.3
0.0 0.0 0.0 0.0 0.0 0.0 0.0 0.0 1.7 12.7 7.4 0.7 0.3 0.0 0.4 0.5 0.3 1.7 0.0 0.0 0.5 0.0 0.0 0.0 0.0 0.3 2.6 2.5 2.5 1.5 3.8 7.5 10.0 15.3 9.3 21.1 7.8 2.1 1.2 4.5 4.7 5.1 3.3 0.9
0.0 0.0 0.0 0.0 0.0 0.0 0.0 0.0 1.4 12.3 10.9 0.2 0.1 0.5 0.4 0.0 0.0 0.2 0.1 0.0 0.0 0.0 0.0 0.8 2.0 1.8 1.3 0.6 0.9 2.1 3.0 5.1 9.5 14.2 12.9 11.2 6.5 6.3 7.9 6.5 6.7 4.4 3.7 1.5
0.0 0.0 0.0 0.0 0.0 0.0 0.0 0.0 0.0 6.4 14.3 1.5 0.2 0.4 0.0 1.1 0.8 0.1 0.0 0.0 0.0 0.0 0.6 2.8 6.3 3.1 0.5 1.8 0.6 0.1 0.4 2.6 9.5 12.0 14.6 10.9 9.1 9.5 9.2 3.8 6.0 3.8 3.5 2.3
0.0 0.0 0.0 0.0 0.0 0.0 0.0 0.0 0.0 1.3 15.9 0.2 0.0 0.7 0.4 0.0 0.4 1.4 0.0 0.0 0.0 0.0 1.1 5.0 4.8 2.6 1.1 1.0 3.8 2.2 1.0 3.2 9.5 9.1 13.9 7.8 7.1 5.9 6.9 11.7 10.6 5.5 6.0 4.2
0.0 0.0 0.0 0.0 0.0 0.0 0.0 0.0 0.0 0.0 12.6 0.6 0.0 0.0 0.1 0.2 0.1 3.2 0.1 1.1 0.0 1.4 4.7 5.7 1.3 3.3 1.6 2.7 2.3 7.1 6.3 6.8 5.9 7.4 15.6 9.6 2.6 2.1 9.7 11.1 5.4 5.6 5.5 5.6
0.0 0.0 0.0 0.0 0.0 0.0 0.0 0.0 0.0 0.0 2.6 0.9 0.0 0.0 0.0 0.0 0.0 0.3 1.0 0.7 0.7 2.6 4.7 2.5 4.6 5.7 3.5 2.4 4.0 0.9 8.1 8.4 11.5 8.9 11.2 8.4 5.1 8.2 7.7 4.1 2.5 2.0 2.5 3.4
0.0 0.0 0.0 0.0 0.0 0.0 0.0 0.0 0.0 0.0 6.3 2.8 0.9 0.2 0.0 0.0 0.0 0.0 2.3 0.1 0.2 0.6 1.0 5.1 6.2 6.7 2.6 3.7 1.3 0.6 1.7 1.2 2.0 2.0 2.2 0.5 4.1 2.0 0.9 1.1 2.7 1.9 1.1 1.2
0.0 0.0 0.0 0.0 0.0 0.0 0.0 0.0 0.0 0.0 6.3 17.8 1.2 0.0 0.0 0.0 0.0 0.0 0.0 0.0 0.1 0.5 1.2 8.0 10.3 7.1 1.4 1.3 0.9 0.1 0.5 0.2 0.2 0.1 0.1 0.2 0.6 0.5 1.1 0.9 0.5 0.5 0.2 1.1
0.0 0.0 0.0 0.0 0.0 0.0 0.0 0.0 0.0 0.0 2.3 19.1 4.0 0.4 0.1 0.0 0.0 0.0 0.0 0.0 0.1 0.8 5.7 10.2 8.8 2.9 3.5 3.1 2.0 1.9 1.5 2.4 1.8 0.3 0.0 1.0 0.0 0.0 0.0 0.2 0.3 0.1 0.1 1.6
0.0 0.0 0.0 0.0 0.0 0.0 0.0 2.5 0.0 0.0 0.0 9.5 18.4 0.4 0.3 0.0 0.0 0.0 0.0 0.0 0.1 2.5 6.1 8.6 3.3 2.1 3.9 8.5 3.9 0.8 0.3 0.0 1.2 1.3 0.0 0.4 0.0 0.1 0.0 0.8 0.4 0.3 0.8 2.2
0.0 0.0 0.0 0.0 0.0 0.0 0.2 3.4 0.0 0.0 0.0 18.3 34.7 17.4 2.7 0.9 0.8 1.4 1.6 1.2 1.4 4.5 10.6 10.0 5.4 5.2 7.5 13.2 7.0 0.5 0.1 0.0 0.0 0.0 0.1 1.0 0.3 0.3 1.1 0.7 0.3 1.7 1.9 1.5
0.0 0.0 0.0 0.0 0.0 0.0 0.0 0.0 0.0 0.0 1.7 13.4 60.6 36.1 10.2 1.3 2.3 5.7 4.8 5.8 4.6 13.0 11.7 9.7 5.8 6.3 9.8 18.3 1.2 0.2 0.3 0.8 1.7 1.8 1.2 2.5 2.4 2.7 2.7 0.8 2.1 1.9 2.2 2.4
0.0 0.0 0.0 0.0 0.0 0.1 0.0 0.0 0.0 0.0 0.4 55.0 42.6 27.3 12.5 3.1 2.7 4.0 7.6 9.0 24.6 15.8 19.0 9.8 7.5 17.4 26.5 12.7 4.0 1.0 2.4 5.1 4.2 4.1 3.4 2.3 2.3 3.2 3.5 2.7 2.3 3.7 6.2 5.1
0.0 0.0 1.4 11.2 2.1 0.0 0.0 0.0 8.6 21.9 32.5 33.2 30.3 11.8 12.0 4.9 6.3 11.3 16.3 20.5 30.2 38.5 22.3 14.3 24.3 20.6 11.0 7.7 8.0 7.7 7.3 6.9 6.9 9.6 7.6 4.6 6.4 5.8 6.4 7.9 8.4 7.8 8.9 9.5
1.8 13.1 15.5 1.7 0.0 0.8 7.8 34.9 39.8 32.7 35.8 16.1 11.8 7.7 9.7 5.7 17.1 19.9 19.2 31.5 29.3 36.0 19.0 18.2 23.8 19.6 10.4 8.4 10.9 10.6 9.9 9.7 9.8 9.8 10.3 11.8 14.0 14.2 12.0 10.7 12.3 11.5 11.4 11.8
1.8 1.7 3.2 5.5 20.5 35.4 44.9 42.5 21.9 17.0 15.5 12.7 10.1 6.9 7.4 11.8 10.2 24.2 26.9 28.8 24.8 27.5 10.7 22.1 20.5 11.3 10.0 13.0 13.8 13.7 13.1 12.5 11.7 11.2 12.3 11.6 12.0 13.0 12.9 13.1 13.6 12.4 11.3 10.4
2.3 18.9 35.0 33.8 37.7 54.3 40.9 25.0 16.4 15.7 10.1 11.1 9.9 12.0 11.9 14.7 17.9 29.1 26.7 31.5 23.8 11.5 17.9 16.3 14.2 10.8 11.6 13.9 15.7 16.2 15.3 13.8 12.9 12.9 11.6 10.9 11.7 11.3 10.4 10.9 9.2 9.0 8.7 9.7
21.8 39.3 47.0 31.2 29.7 16.3 13.8 10.7 9.8 9.1 11.3 13.2 14.7 16.3 16.7 14.8 24.4 21.0 29.5 19.4 12.1 24.3 19.5 15.9 13.3 13.7 13.1 12.5 13.6 13.7 14.1 14.0 13.1 15.2 14.6 12.7 11.1 10.4 9.2 9.4 10.4 9.2 8.9 9.5
39.7 31.2 30.0 17.3 10.3 8.7 10.1 9.7 9.7 11.2 13.1 17.8 19.6 19.6 18.4 22.0 28.0 18.4 13.8 21.9 22.3 18.9 16.9 15.3 15.7 15.7 15.2 14.5 13.5 12.4 11.4 12.2 11.6 11.5 11.5 12.6 10.3 8.1 7.3 9.0 8.8 8.2 7.8 7.1
34.1 27.7 15.5 6.5 6.1 6.3 4.9 7.6 8.8 9.4 12.5 13.3 17.7 19.1 22.2 22.0 18.9 20.1 17.3 16.9 18.1 18.7 18.9 17.8 16.2 15.8 15.1 15.4 14.3 13.8 13.4 13.3 13.4 12.2 12.6 11.0 11.4 13.0 13.3 9.9 8.7 8.3 8.0 7.1
38.3 16.6 8.8 8.9 5.7 5.6 5.7 6.1 6.2 5.3 9.1 12.1 13.8 21.9 17.0 16.1 18.7 16.0 13.0 17.9 19.3 17.1 14.7 13.4 13.8 13.0 12.7 11.9 10.5 9.9 8.4 7.8 8.3 9.4 10.5 11.9 12.5 12.1 10.5 11.2 13.4 11.9 11.7 11.0

GFSNW_prec_kuchsnow_300.txt.gz
Snowfall_Accumulation
0.0 0.0 0.0 0.0 0.0 0.0 0.0 0.0 6.6 0.0 0.0 2.0 4.3 5.8 2.8 0.0 0.0 0.0 0.2 0.1 0.6 1.0 0.5 1.8 0.0 0.2 0.0 0.7 2.0 1.4 1.1 4.1 3.7 0.4 0.1 0.0 0.0 0.0 0.0 3.4 1.3 2.6 4.8 3.2
0.0 0.0 0.0 0.0 0.0 0.0 0.0 2.8 1.2 0.0 0.0 7.6 3.6 0.4 0.0 0.9 1.0 0.4 1.6 1.5 1.6 1.3 0.5 5.1 0.0 3.0 1.2 0.3 1.2 2.1 2.0 4.6 4.6 3.3 0.8 0.8 1.0 0.0 0.0 0.2 0.8 3.4 5.5 0.5
0.0 0.0 0.0 0.0 0.0 0.0 0.0 3.0 7.8 0.0 0.0 0.0 3.1 4.4 1.1 0.7 0.0 1.1 1.1 1.4 0.0 2.3 1.0 0.1 4.4 3.5 2.8 1.6 1.1 0.6 4.6 4.2 2.6 3.6 6.6 7.5 7.1 2.4 1.5 1.4 6.7 0.6 0.5 0.3
0.0 0.0 0.0 0.0 0.0 0.0 0.0 3.4 3.1 0.1 5.4 0.7 2.4 3.6 3.0 2.1 2.8 0.2 0.9 1.8 1.6 3.9 5.0 1.2 1.0 0.4 0.2 0.0 1.0 1.7 4.3 3.1 0.3 0.4 0.3 3.8 4.4 3.2 2.0 4.0 0.6 2.3 0.0 0.0
0.0 0.0 0.0 0.0 0.0 0.0 0.0 4.2 4.3 1.8 2.5 0.4 1.0 1.5 2.2 0.8 1.1 2.4 1.8 2.0 1.1 0.9 3.3 2.8 3.5 2.5 0.4 2.2 1.4 4.8 3.1 4.6 4.6 4.8 1.5 1.6 3.3 2.1 1.9 0.5 0.6 0.0 0.4 0.0
0.0 0.0 0.0 0.0 0.0 0.0 0.0 1.0 0.8 6.0 1.6 0.4 1.2 1.3 1.5 2.0 1.0 0.1 0.0 0.5 0.7 0.5 0.2 0.0 0.0 0.0 1.8 2.9 2.8 1.6 6.1 8.7 11.3 9.9 1.1 3.0 4.1 5.3 4.6 5.1 6.1 4.3 4.5 2.5
0.0 0.0 0.0 0.0 0.0 0.0 0.0 0.0 1.7 12.9 7.4 0.7 0.3 0.0 0.4 0.5 0.3 1.7 0.0 0.0 0.5 0.0 0.0 0.0 0.0 0.3 2.6 2.5 2.6 1.6 4.3 7.8 10.3 16.1 10.4 21.9 8.8 2.5 2.0 5.8 6.1 6.2 4.1 1.3
0.0 0.0 0.0 0.0 0.0 0.0 0.0 0.0 1.4 12.3 11.1 0.2 0.1 0.5 0.4 0.0 0.0 0.2 0.1 0.0 0.0 0.0 0.0 0.8 2.0 1.8 1.3 0.6 0.9 2.1 3.0 5.3 9.8 15.2 13.8 11.6 6.5 6.6 8.5 7.3 8.1 5.6 4.6 1.9
0.0 0.0 0.0 0.0 0.0 0.0 0.0 0.0 0.0 6.5 14.8 1.5 0.2 0.4 0.0 1.1 0.8 0.1 0.0 0.0 0.0 0.0 0.6 2.8 6.3 3.1 0.5 1.8 0.6 0.1 0.4 2.6 9.5 12.8 15.2 11.2 9.7 10.3 10.6 4.4 6.8 3.8 4.0 2.7
0.0 0.0 0.0 0.0 0.0 0.0 0.0 0.0 0.0 1.3 16.3 0.2 0.0 0.8 0.5 0.0 0.5 1.5 0.0 0.0 0.0 0.0 1.1 5.0 4.8 2.6 1.1 1.0 3.8 2.2 1.0 3.2 10.0 9.9 14.6 8.5 7.8 6.5 7.2 12.1 10.6 5.5 6.0 4.6
0.0 0.0 0.0 0.0 0.0 0.0 0.0 0.0 0.0 0.0 12.9 0.6 0.0 0.0 0.1 0.2 0.1 3.3 0.1 1.1 0.0 1.4 4.7 5.8 1.3 3.4 1.6 2.7 2.3 7.1 6.3 6.8 5.9 7.9 16.3 10.1 2.6 2.1 9.7 11.6 5.4 5.6 5.5 6.2
0.0 0.0 0.0 0.0 0.0 0.0 0.0 0.0 0.0 0.0 2.7 0.9 0.0 0.0 0.0 0.0 0.0 0.4 1.0 0.7 0.7 2.7 5.1 2.8 4.9 5.8 3.5 2.4 4.1 0.9 8.1 8.4 11.5 8.9 11.7 8.4 5.3 8.7 7.7 4.1 2.5 2.1 2.5 3.7
0.0 0.0 0.0 0.0 0.0 0.0 0.0 0.0 0.0 0.0 6.3 2.8 0.9 0.2 0.0 0.0 0.0 0.0 2.4 0.1 0.2 0.7 1.0 5.8 6.9 7.0 2.9 4.0 1.3 0.6 1.7 1.2 2.0 2.0 2.2 0.5 4.3 2.0 0.9 1.1 2.7 1.9 1.1 1.2
0.0 0.0 0.0 0.0 0.0 0.0 0.0 0.0 0.0 0.0 6.3 17.8 1.2 0.0 0.0 0.0 0.0 0.0 0.0 0.0 0.1 0.6 1.2 8.8 10.7 7.5 1.4 1.3 1.1 0.1 0.5 0.2 0.2 0.1 0.1 0.2 0.6 0.5 1.1 0.9 0.5 0.5 0.2 1.1
0.0 0.0 0.0 0.0 0.0 0.0 0.0 0.0 0.0 0.0 2.3 19.2 4.0 0.4 0.1 0.0 0.0 0.0 0.0 0.0 0.1 1.0 5.9 10.5 9.2 3.1 3.7 3.1 2.0 1.9 1.5 2.4 1.8 0.3 0.0 1.2 0.0 0.0 0.0 0.3 0.3 0.1 0.1 1.7
0.0 0.0 0.0 0.0 0.0 0.0 0.0 2.5 0.0 0.0 0.0 9.6 18.4 0.4 0.3 0.0 0.0 0.0 0.0 0.0 0.1 2.7 6.3 8.8 3.5 2.3 4.2 8.7 4.1 0.9 0.5 0.1 1.3 1.4 0.0 0.4 0.0 0.1 0.0 0.8 0.4 0.3 0.9 2.2
0.0 0.0 0.0 0.0 0.0 0.0 0.2 3.4 0.0 0.0 0.0 18.5 34.7 17.4 2.7 0.9 0.8 1.4 1.6 1.2 1.4 4.5 10.7 10.1 5.6 5.4 7.6 13.4 7.3 0.7 0.1 0.0 0.0 0.0 0.1 1.0 0.3 0.3 1.1 0.7 0.3 1.7 1.9 1.5
0.0 0.0 0.0 0.0 0.0 0.0 0.0 0.0 0.0 0.0 1.7 13.5 60.6 36.1 10.2 1.3 2.3 5.7 4.8 5.8 4.6 13.0 11.7 9.7 5.8 6.3 9.8 18.4 1.3 0.3 0.3 0.9 1.7 1.9 1.3 2.6 2.4 2.7 2.7 0.8 2.1 1.9 2.2 2.4
0.0 0.0 0.0 0.0 0.0 0.1 0.0 0.0 0.0 0.0 0.4 55.0 42.6 27.3 12.5 3.1 2.7 4.0 7.6 9.0 24.7 15.8 19.0 9.8 7.5 17.4 26.7 13.0 4.2 1.2 2.6 5.4 4.6 4.4 3.5 2.3 2.3 3.2 3.5 2.7 2.3 3.7 6.2 5.1
0.0 0.0 1.4 11.2 2.1 0.0 0.0 0.0 8.8 21.9 32.5 33.2 30.3 11.8 12.0 4.9 6.3 11.3 16.3 20.5 30.3 38.7 22.4 14.3 24.3 20.8 11.3 8.0 8.3 7.9 7.5 7.1 7.1 9.8 7.8 4.8 6.4 5.8 6.4 8.1 8.4 8.0 9.0 9.6
1.8 13.1 15.5 1.7 0.0 0.8 7.8 34.9 39.8 32.7 35.8 16.1 11.8 7.7 9.7 5.7 17.1 19.9 19.2 31.5 29.5 36.3 19.2 18.4 24.0 19.8 10.7 8.6 11.0 10.7 10.0 9.9 9.9 10.0 10.5 12.1 14.3 14.4 12.0 10.7 12.3 11.5 11.4 12.0
1.8 1.7 3.2 5.5 20.5 35.4 44.9 42.5 21.9 17.0 15.5 12.7 10.1 6.9 7.4 11.8 10.2 24.3 27.0 29.0 25.1 27.9 10.9 22.3 20.8 11.6 10.4 13.3 14.0 13.9 13.2 12.7 11.8 11.3 12.4 11.7 12.1 13.2 13.1 13.3 13.7 12.5 11.3 10.4
2.3 18.9 35.0 33.8 37.7 54.3 40.9 25.0 16.4 15.7 10.1 11.1 9.9 12.0 11.9 14.7 17.9 29.2 26.9 31.9 24.2 11.8 18.2 16.7 14.6 11.3 12.1 14.4 16.1 16.5 15.6 14.0 12.9 13.0 11.7 10.9 11.8 11.4 10.5 11.0 9.3 9.0 8.8 9.7
21.8 39.3 47.0 31.2 29.7 16.3 13.8 10.7 9.8 9.1 11.3 13.2 14.7 16.3 16.7 14.8 24.5 21.2 29.7 19.7 12.3 24.6 19.8 16.3 14.0 14.1 13.5 12.9 14.0 14.0 14.4 14.2 13.3 15.4 14.7 12.8 11.1 10.5 9.2 9.5 10.5 9.2 8.9 9.6
39.7 31.2 30.0 17.3 10.3 8.7 10.1 9.7 9.7 11.2 13.1 17.8 19.6 19.6 18.4 22.0 28.1 18.6 14.0 22.1 22.6 19.3 17.4 15.9 16.0 16.0 15.5 14.8 13.7 12.8 11.7 12.5 11.9 11.7 11.5 12.8 10.3 8.1 7.3 9.0 8.9 8.2 7.9 7.1
34.1 27.7 15.5 6.5 6.1 6.3 4.9 7.6 8.8 9.4 12.5 13.3 17.7 19.1 22.3 22.1 18.9 20.1 17.5 17.2 18.5 19.2 19.1 18.0 16.4 15.8 15.3 15.6 14.6 14.1 13.8 13.7 13.7 12.4 12.8 11.0 11.5 13.2 13.3 9.9 8.7 8.3 8.0 7.2
38.3 16.6 8.8 8.9 5.7 5.6 5.7 6.1 6.2 5.3 9.1 12.1 13.8 21.9 17.1 16.2 18.8 16.3 13.2 18.2 19.5 17.3 14.9 13.6 14.1 13.3 13.0 12.2 10.8 10.1 8.7 8.2 8.6 9.7 10.8 12.1 12.7 12.1 10.5 11.2 13.4 12.0 11.7 11.1

GFSNW_prec_kuchsnow_306.txt.gz
Snowfall_Accumulation
0.0 0.0 0.0 0.0 0.0 0.0 0.0 0.0 6.6 0.0 0.0 2.0 4.3 5.8 2.8 0.0 0.0 0.0 0.2 0.1 0.7 1.5 0.9 2.1 0.1 0.4 0.5 0.7 2.0 1.7 1.1 4.9 4.2 0.5 0.1 0.0 2.4 0.5 0.1 3.5 1.3 2.7 4.8 3.2
0.0 0.0 0.0 0.0 0.0 0.0 0.0 2.8 1.2 0.0 0.0 7.6 3.6 0.4 0.0 0.9 1.0 0.4 1.6 1.5 1.7 1.4 0.9 6.3 0.0 3.2 1.2 0.3 1.4 2.4 2.2 5.0 5.7 5.2 2.0 2.2 5.0 4.7 1.4 0.3 0.8 3.4 5.5 0.6
0.0 0.0 0.0 0.0 0.0 0.0 0.0 3.0 7.8 0.0 0.0 0.0 3.1 4.4 1.1 0.7 0.0 1.1 1.1 1.4 0.1 2.5 1.0 0.1 4.4 3.6 2.8 1.6 1.2 0.6 4.8 4.9 4.3 6.4 10.4 9.9 9.2 5.1 2.0 1.8 7.9 0.6 0.5 0.3
0.0 0.0 0.0 0.0 0.0 0.0 0.0 3.4 3.1 0.1 5.4 0.7 2.4 3.6 3.0 2.1 2.8 0.2 0.9 1.8 1.6 4.1 5.6 1.4 1.0 0.4 0.2 0.0 1.0 1.7 4.3 3.4 0.8 1.6 1.2 3.8 4.9 4.2 3.5 4.8 1.6 2.9 0.5 0.4
0.0 0.0 0.0 0.0 0.0 0.0 0.0 4.3 4.4 1.9 2.5 0.4 1.0 1.5 2.2 0.8 1.1 2.4 1.8 2.0 1.1 0.9 3.5 3.1 3.8 2.5 0.4 2.2 1.4 4.8 3.1 4.7 5.0 6.5 1.8 1.6 3.3 2.1 1.9 2.3 1.9 1.0 1.1 0.5
0.0 0.0 0.0 0.0 0.0 0.0 0.0 1.0 0.8 6.3 1.6 0.4 1.2 1.3 1.5 2.1 1.0 0.1 0.0 0.5 0.7 0.5 0.2 0.0 0.0 0.0 1.8 2.9 3.3 1.8 6.1 9.2 11.7 10.9 1.6 3.8 4.1 6.6 5.8 6.7 8.3 5.8 5.2 3.2
0.0 0.0 0.0 0.0 0.0 0.0 0.0 0.0 1.7 13.4 7.4 0.7 0.3 0.0 0.4 0.5 0.3 1.7 0.0 0.0 0.5 0.0 0.0 0.0 0.0 0.3 2.6 2.5 2.6 1.6 4.3 7.9 11.4 17.0 11.6 22.4 9.5 2.5 2.5 6.6 7.3 7.7 5.1 1.5
0.0 0.0 0.0 0.0 0.0 0.0 0.0 0.0 1.4 12.7 11.6 0.2 0.1 0.5 0.4 0.0 0.0 0.2 0.1 0.0 0.0 0.0 0.0 0.8 2.0 1.8 1.3 0.6 0.9 2.1 3.0 5.6 11.1 16.2 14.1 12.4 7.4 7.1 9.6 8.2 9.2 6.3 4.8 1.9
0.0 0.0 0.0 0.0 0.0 0.0 0.0 0.0 0.0 6.7 15.6 1.5 0.2 0.4 0.0 1.2 0.8 0.1 0.0 0.0 0.0 0.0 0.6 2.9 6.3 3.2 0.5 1.8 0.6 0.1 0.4 2.6 9.5 13.5 15.5 11.5 10.1 10.8 12.0 5.2 7.6 4.0 4.0 2.7
0.0 0.0 0.0 0.0 0.0 0.0 0.0 0.0 0.0 1.3 17.1 0.2 0.0 0.9 0.9 0.0 0.6 1.5 0.0 0.0 0.0 0.0 1.1 5.0 4.9 2.7 1.1 1.0 3.8 2.2 1.0 3.2 10.0 10.1 15.0 9.0 7.8 6.5 7.2 13.1 11.0 5.5 6.0 4.8
0.0 0.0 0.0 0.0 0.0 0.0 0.0 0.0 0.0 0.0 13.5 0.6 0.0 0.0 0.1 0.3 0.3 3.6 0.1 1.1 0.0 1.4 4.7 6.3 1.5 3.6 1.6 2.7 2.3 7.1 6.3 6.8 5.9 7.9 16.3 10.5 2.6 2.1 9.7 11.6 5.4 5.6 5.5 6.3
0.0 0.0 0.0 0.0 0.0 0.0 0.0 0.0 0.0 0.0 2.9 0.9 0.0 0.0 0.0 0.0 0.0 0.4 1.1 0.7 0.8 2.7 5.4 3.2 5.2 6.1 3.6 2.4 4.4 0.9 8.1 8.4 11.5 8.9 11.9 8.4 5.3 8.7 7.8 4.1 2.5 2.2 2.5 3.7
0.0 0.0 0.0 0.0 0.0 0.0 0.0 0.0 0.0 0.0 6.4 2.8 0.9 0.2 0.0 0.0 0.0 0.0 2.5 0.1 0.2 0.7 1.2 6.7 7.3 8.0 2.9 4.3 1.3 0.6 1.7 1.2 2.0 2.0 2.2 0.5 4.3 2.0 0.9 1.1 2.7 1.9 1.1 1.2
0.0 0.0 0.0 0.0 0.0 0.0 0.0 0.0 0.0 0.0 6.4 17.8 1.2 0.0 0.0 0.0 0.0 0.0 0.0 0.0 0.1 0.6 1.3 9.9 11.7 8.5 1.4 1.4 1.1 0.1 0.5 0.2 0.2 0.1 0.1 0.2 0.6 0.5 1.1 0.9 0.5 0.5 0.2 1.1
0.0 0.0 0.0 0.0 0.0 0.0 0.0 0.0 0.0 0.0 2.3 19.2 4.0 0.4 0.1 0.0 0.0 0.0 0.0 0.0 0.1 1.1 6.5 11.2 10.0 3.1 4.1 3.1 2.1 1.9 1.5 2.4 1.8 0.3 0.0 1.2 0.0 0.0 0.0 0.3 0.3 0.1 0.1 1.9
0.0 0.0 0.0 0.0 0.0 0.0 0.0 2.5 0.0 0.0 0.0 10.1 18.4 0.4 0.3 0.0 0.0 0.0 0.0 0.0 0.1 2.9 6.8 9.3 3.9 2.6 5.3 9.5 4.3 0.9 0.5 0.1 1.3 1.5 0.0 0.4 0.0 0.1 0.0 0.8 0.4 0.3 1.1 2.2
0.0 0.0 0.0 0.0 0.0 0.0 0.2 3.4 0.0 0.0 0.0 19.1 35.1 17.4 2.7 0.9 0.8 1.4 1.6 1.2 1.4 4.6 11.1 10.7 6.1 5.8 8.3 14.1 7.9 0.8 0.2 0.1 0.0 0.1 0.1 1.0 0.3 0.5 1.2 0.7 0.3 1.7 1.9 1.5
0.0 0.0 0.0 0.0 0.0 0.0 0.0 0.0 0.0 0.0 1.8 13.5 60.8 36.1 10.2 1.3 2.3 5.7 4.8 5.8 4.7 13.0 11.9 10.0 6.3 6.5 10.0 19.0 1.8 0.7 0.5 0.9 1.8 2.0 1.4 2.8 2.5 2.8 2.7 0.8 2.1 1.9 2.2 2.4
0.0 0.0 0.0 0.0 0.0 0.1 0.0 0.0 0.0 0.0 0.4 55.3 42.8 27.3 12.5 3.1 2.7 4.0 7.6 9.0 25.2 16.0 19.2 10.0 7.8 17.9 27.5 14.0 5.0 1.7 3.1 6.1 5.1 4.4 3.5 2.5 2.5 3.4 3.6 2.7 2.3 3.7 6.2 5.1
0.0 0.0 1.4 11.2 2.1 0.0 0.0 0.0 9.0 21.9 32.5 33.2 30.3 11.8 12.0 4.9 6.3 11.3 16.3 20.5 30.8 39.4 22.8 14.3 24.4 21.4 12.1 8.9 9.4 8.9 8.3 7.9 8.0 10.4 7.8 4.8 6.5 6.0 6.6 8.2 8.4 8.2 9.4 9.7
1.8 13.1 15.5 1.7 0.0 0.8 7.8 34.9 39.8 32.7 35.8 16.1 11.8 7.7 9.7 5.7 17.1 19.9 19.2 31.6 29.7 37.3 19.8 18.9 24.4 20.5 11.4 9.4 11.9 11.6 11.0 10.8 10.9 11.0 11.3 12.7 15.0 14.9 12.3 11.0 12.3 11.6 11.5 12.2
1.8 1.7 3.2 5.5 20.5 35.4 44.9 42.5 21.9 17.0 15.5 12.7 10.1 6.9 7.4 11.8 10.2 24.5 27.2 29.3 25.7 28.8 11.4 22.8 21.3 12.4 11.2 14.1 14.8 14.7 14.2 13.6 12.7 12.2 13.2 12.3 12.6 13.5 13.4 13.6 14.1 12.8 11.4 10.5
2.3 18.9 35.0 33.8 37.7 54.3 40.9 25.0 16.4 15.7 10.1 11.1 9.9 12.0 11.9 14.7 18.0 29.3 27.2 32.5 24.9 12.1 18.6 17.3 15.6 12.1 12.7 15.0 16.6 16.8 16.2 14.5 13.7 13.8 12.4 11.6 12.3 11.5 10.9 11.2 9.5 9.2 9.0 9.8
21.8 39.3 47.0 31.2 29.7 16.3 13.8 10.7 9.9 9.2 11.3 13.2 14.7 16.3 16.7 14.8 24.7 21.4 30.3 20.3 12.8 25.4 20.5 17.4 15.1 14.8 14.0 13.4 14.4 14.3 14.7 14.4 13.7 15.9 15.3 13.4 11.6 10.8 9.5 9.6 10.7 9.4 9.1 9.8
39.7 31.2 30.0 17.3 10.3 8.7 10.2 9.7 9.7 11.2 13.1 17.8 19.6 19.7 18.4 22.2 28.4 18.9 14.5 22.7 23.3 20.2 18.5 16.8 16.7 16.4 15.8 15.1 14.0 13.1 11.8 12.7 12.1 12.0 11.9 13.2 10.6 8.3 7.6 9.1 9.0 8.3 8.0 7.2
34.1 27.8 15.5 6.5 6.2 6.3 4.9 7.6 8.8 9.4 12.5 13.3 17.9 19.2 22.5 22.4 19.2 20.1 18.0 17.8 19.4 20.2 19.9 18.7 16.7 15.9 15.3 15.7 14.8 14.5 14.2 14.1 14.1 12.9 13.3 11.5 11.9 13.5 13.6 10.2 8.9 8.4 8.2 7.3
38.3 16.7 8.8 9.0 5.8 5.6 5.7 6.1 6.2 5.3 9.2 12.1 13.8 22.1 17.4 16.5 19.2 16.9 14.0 19.2 20.6 18.0 15.5 13.8 14.4 13.8 13.4 12.3 10.9 10.4 9.0 8.6 8.9 10.1 11.2 12.7 12.8 12.2 10.8 11.3 13.5 12.1 11.8 11.2

GFSNW_prec_kuchsnow_312.txt.gz
Snowfall_Accumulation
0.0 0.0 0.0 0.0 0.0 0.0 0.0 0.0 6.6 0.0 0.0 2.0 4.3 5.8 2.8 0.0 0.0 0.0 0.2 0.1 0.8 1.8 0.9 2.2 0.1 0.4 0.5 0.7 2.0 2.4 1.7 5.8 4.5 1.3 1.6 1.8 3.4 1.3 1.0 6.2 3.7 3.5 4.8 4.4
0.0 0.0 0.0 0.0 0.0 0.0 0.0 2.8 1.2 0.0 0.0 7.6 3.6 0.4 0.0 0.9 1.0 0.4 1.6 1.5 1.7 1.4 0.9 6.7 0.0 3.2 1.2 0.3 1.8 3.4 2.5 5.0 5.7 5.2 2.3 2.3 6.2 5.0 1.9 0.6 3.0 5.1 5.5 1.1
0.0 0.0 0.0 0.0 0.0 0.0 0.0 3.0 7.8 0.0 0.0 0.0 3.1 4.5 1.1 0.7 0.0 1.1 1.1 1.4 0.1 2.5 1.0 0.1 4.4 3.6 2.8 1.6 1.2 0.6 4.8 5.9 5.7 6.5 11.8 11.0 9.2 5.5 2.0 1.8 9.3 3.2 1.1 0.5
0.0 0.0 0.0 0.0 0.0 0.0 0.0 3.4 3.1 0.1 5.4 0.7 2.4 3.6 3.0 2.1 2.8 0.2 0.9 1.8 1.6 4.1 5.7 1.4 1.0 0.4 0.2 0.0 1.0 1.7 4.3 4.5 1.0 2.2 2.2 4.5 5.6 5.1 4.9 5.6 3.0 5.0 1.7 0.8
0.0 0.0 0.0 0.0 0.0 0.0 0.0 4.3 4.5 2.1 2.6 0.4 1.0 1.5 2.2 1.0 1.1 2.4 1.8 2.0 1.1 0.9 3.5 3.1 3.9 2.5 0.4 2.2 1.4 4.8 3.1 4.9 5.9 7.5 2.4 1.6 3.6 2.8 3.3 3.9 3.6 3.0 2.9 1.5
0.0 0.0 0.0 0.0 0.0 0.0 0.0 1.0 0.8 6.7 1.6 0.4 1.2 1.3 1.5 2.1 1.0 0.1 0.0 0.5 0.7 0.5 0.2 0.0 0.0 0.0 1.8 2.9 3.3 1.8 6.1 9.4 12.0 11.7 2.2 4.1 4.2 8.2 7.7 9.6 11.3 8.5 7.2 5.3
0.0 0.0 0.0 0.0 0.0 0.0 0.0 0.0 1.7 13.8 7.4 0.7 0.3 0.0 0.4 0.5 0.3 1.9 0.0 0.0 0.5 0.0 0.0 0.0 0.0 0.3 2.6 2.5 2.6 1.6 4.3 7.9 11.6 17.7 11.9 22.6 10.2 3.3 3.6 8.2 10.0 10.4 7.1 2.8
0.0 0.0 0.0 0.0 0.0 0.0 0.0 0.0 1.4 13.1 12.0 0.2 0.1 0.5 0.4 0.0 0.0 0.2 0.1 0.0 0.0 0.0 0.0 0.8 2.0 1.8 1.3 0.6 0.9 2.1 3.0 5.6 11.2 16.2 14.1 12.6 7.4 7.3 10.7 9.3 10.7 7.9 5.7 1.9
0.0 0.0 0.0 0.0 0.0 0.0 0.0 0.0 0.0 6.9 16.1 1.5 0.2 0.4 0.0 1.2 0.8 0.1 0.0 0.0 0.0 0.0 0.6 2.9 6.3 3.2 0.5 1.8 0.6 0.1 0.4 2.6 9.5 13.5 15.5 11.5 10.1 10.8 12.0 6.0 8.6 4.2 4.0 2.8
0.0 0.0 0.0 0.0 0.0 0.0 0.0 0.0 0.0 1.3 17.7 0.2 0.0 1.0 1.3 0.0 0.6 1.5 0.0 0.0 0.0 0.0 1.1 5.0 4.9 2.7 1.1 1.0 3.8 2.2 1.0 3.2 10.0 10.1 15.2 9.0 7.8 6.5 7.2 13.1 11.0 5.5 6.1 4.8
0.0 0.0 0.0 0.0 0.0 0.0 0.0 0.0 0.0 0.0 13.7 0.6 0.0 0.0 0.1 0.8 0.8 4.3 0.1 1.1 0.0 1.4 4.7 6.3 1.5 3.6 1.6 2.8 2.3 7.1 6.3 6.8 5.9 7.9 16.3 10.5 2.6 2.1 9.7 11.6 5.4 5.6 5.5 6.3
0.0 0.0 0.0 0.0 0.0 0.0 0.0 0.0 0.0 0.0 3.1 0.9 0.0 0.0 0.0 0.0 0.0 0.8 1.2 0.7 0.8 2.7 5.4 3.2 5.2 6.1 3.6 2.6 4.8 0.9 8.1 8.4 11.5 8.9 11.9 8.5 5.3 8.8 7.8 4.2 2.5 2.2 2.5 3.7
0.0 0.0 0.0 0.0 0.0 0.0 0.0 0.0 0.0 0.0 6.5 2.8 0.9 0.2 0.0 0.0 0.0 0.0 2.5 0.1 0.2 0.7 1.2 6.8 7.3 8.2 3.1 4.4 1.5 0.8 1.8 1.2 2.0 2.0 2.3 0.7 4.5 2.1 0.9 1.1 2.7 1.9 1.1 1.2
0.0 0.0 0.0 0.0 0.0 0.0 0.0 0.0 0.0 0.0 6.4 17.8 1.2 0.0 0.0 0.0 0.0 0.0 0.0 0.0 0.1 0.6 1.3 10.1 11.9 9.1 1.6 2.0 1.6 0.7 0.9 0.2 0.6 0.3 0.3 0.4 0.6 0.5 1.1 0.9 0.5 0.5 0.2 1.1
0.0 0.0 0.0 0.0 0.0 0.0 0.0 0.0 0.0 0.0 2.3 19.2 4.0 0.4 0.1 0.0 0.0 0.0 0.0 0.0 0.1 1.1 6.5 11.7 10.7 3.7 4.7 3.8 2.3 2.5 1.9 3.1 2.6 1.1 0.5 1.5 0.0 0.1 0.0 0.3 0.3 0.1 0.3 1.9
0.0 0.0 0.0 0.0 0.0 0.0 0.0 2.5 0.0 0.0 0.0 10.8 18.4 0.5 0.3 0.0 0.0 0.0 0.0 0.0 0.1 2.9 6.8 9.7 4.4 3.2 6.2 10.9 4.8 1.7 1.0 0.6 2.1 2.3 0.5 0.7 0.2 0.1 0.0 0.9 0.4 0.3 1.1 2.2
0.0 0.0 0.0 0.0 0.0 0.0 0.2 3.4 0.0 0.0 0.0 19.6 35.4 17.4 2.7 0.9 0.8 1.4 1.6 1.2 1.4 4.6 11.5 11.3 6.8 6.3 8.5 15.2 8.9 1.6 0.6 0.7 1.1 0.7 0.3 1.2 0.5 0.8 1.4 0.8 0.4 1.7 1.9 1.5
0.0 0.0 0.0 0.0 0.0 0.0 0.0 0.0 0.0 0.0 1.8 13.8 60.9 36.1 10.2 1.3 2.3 5.7 4.8 5.8 4.8 13.2 12.3 10.5 6.7 6.5 10.0 19.8 2.8 1.4 0.8 1.1 2.4 2.4 2.0 3.6 3.1 3.1 3.0 1.0 2.2 2.0 2.3 2.4
0.0 0.0 0.0 0.0 0.0 0.1 0.0 0.0 0.0 0.0 0.4 55.3 43.0 27.3 12.5 3.1 2.7 4.0 7.6 9.0 25.3 16.8 19.7 10.7 7.8 18.3 28.4 15.5 6.0 2.6 4.1 7.2 6.1 5.0 4.0 3.0 3.0 3.7 3.8 3.0 2.3 3.9 6.3 5.1
0.0 0.0 1.4 11.2 2.1 0.0 0.0 0.0 9.0 21.9 32.5 33.2 30.3 11.8 12.0 4.9 6.3 11.3 16.3 20.6 31.3 40.3 23.6 14.3 24.4 22.3 13.2 9.9 10.6 10.2 9.3 8.8 8.7 11.0 8.0 4.8 6.7 6.3 7.0 8.6 8.8 8.6 9.8 10.0
1.8 13.1 15.5 1.7 0.0 0.8 7.8 34.9 39.8 32.7 35.8 16.1 11.8 7.7 9.7 5.7 17.1 19.9 19.2 31.6 29.7 38.7 21.1 19.2 24.9 21.2 12.2 9.9 12.5 12.2 11.7 11.5 11.7 12.0 12.3 13.8 15.9 15.6 12.8 11.2 12.6 11.9 11.8 12.6
1.8 1.7 3.2 5.5 20.5 35.4 44.9 42.5 21.9 17.0 15.7 12.7 10.1 6.9 7.4 11.8 10.3 24.6 27.2 29.6 26.6 30.3 12.4 22.8 21.6 13.4 11.9 14.5 15.2 15.1 14.6 14.2 13.3 13.0 14.0 13.0 13.4 14.3 14.0 14.1 14.4 13.1 11.9 10.8
2.3 18.9 35.0 33.8 37.7 54.3 40.9 25.0 16.4 15.7 10.1 11.1 9.9 12.0 11.9 14.7 18.1 29.5 27.6 33.3 25.8 13.1 18.9 17.9 16.7 12.9 12.7 15.2 16.8 16.8 16.2 14.5 14.0 14.0 12.6 12.2 12.9 12.2 11.6 11.8 9.9 9.6 9.3 10.2
21.8 39.3 47.0 31.2 29.7 16.3 14.0 11.0 10.3 9.4 11.3 13.2 14.9 16.3 16.7 14.8 25.0 21.9 30.9 21.3 12.8 26.4 20.9 18.4 16.1 15.4 14.4 13.4 14.4 14.3 14.7 14.4 13.7 15.9 15.5 13.6 12.0 11.2 10.0 10.2 11.3 9.8 9.5 10.1
39.7 31.2 30.0 17.5 10.6 8.9 10.3 9.7 9.7 11.2 13.1 18.1 19.6 19.9 18.5 22.3 28.9 19.4 15.0 23.0 23.8 20.8 19.4 17.4 17.6 16.8 16.1 15.3 14.0 13.1 11.8 12.7 12.1 12.1 12.2 13.5 10.9 8.6 7.9 9.5 9.5 8.8 8.5 7.6
34.1 27.8 15.5 6.5 6.2 6.3 4.9 7.6 8.8 9.4 12.5 13.5 17.9 19.4 22.7 22.7 19.2 20.1 18.3 17.8 19.7 20.7 20.6 19.6 17.2 15.9 15.5 15.9 15.2 14.6 14.5 14.4 14.4 13.0 13.7 11.9 12.4 14.0 14.1 10.5 9.3 8.8 8.6 7.6
38.3 16.7 8.8 9.0 5.8 5.6 5.7 6.1 6.2 5.3 9.2 12.1 13.8 22.3 17.7 16.5 19.2 17.2 14.0 19.4 21.0 18.5 15.7 13.9 14.8 14.3 13.9 12.5 11.0 10.6 9.2 8.8 8.9 10.1 11.2 13.0 13.3 12.4 10.8 11.5 13.8 12.5 12.3 11.6